This is the latest recevied weather packets stored in our database for station/object HB9FRQ-10. If no packets are shown the sender has not sent any weather packets the latest 1 day(s).
| Time | Temp. | Humidity | Pressure | Rain* | Wind** | Luminosity | Snow |
|---|---|---|---|---|---|---|---|
| 1778084323 | 11.67° C | 100% | 1011.8 hPa | - | - | - | - |
| 1778082523 | 11.67° C | 100% | 1011.9 hPa | - | - | - | - |
| 1778081623 | 11.67° C | 100% | 1011.9 hPa | - | - | - | - |
| 1778080723 | 12.22° C | 100% | 1011.8 hPa | - | - | - | - |
| 1778079823 | 12.22° C | 100% | 1011.7 hPa | - | - | - | - |
| 1778071722 | 12.22° C | 100% | 1011.5 hPa | - | - | - | - |
| 1778070822 | 11.67° C | 100% | 1011.3 hPa | - | - | - | - |
| 1778069922 | 12.22° C | 100% | 1010.9 hPa | - | - | - | - |
| 1778069022 | 12.22° C | 100% | 1010.8 hPa | - | - | - | - |
| 1778068122 | 12.78° C | 100% | 1010.4 hPa | - | - | - | - |
| 1778067222 | 13.89° C | 100% | 1010.3 hPa | - | - | - | - |
| 1778060021 | 13.89° C | 98% | 1009.8 hPa | - | - | - | - |
| 1778059121 | 13.89° C | 93% | 1009.7 hPa | - | - | - | - |
| 1778058221 | 13.89° C | 95% | 1009.7 hPa | - | - | - | - |
| 1778057321 | 13.89° C | 97% | 1009.6 hPa | - | - | - | - |
| 1778056421 | 13.33° C | 98% | 1009.7 hPa | - | - | - | - |
| 1778053720 | 12.78° C | 100% | 1009.4 hPa | - | - | - | - |
| 1778051920 | 12.22° C | 100% | 1009.7 hPa | - | - | - | - |
| 1778051020 | 11.67° C | 100% | 1009.6 hPa | - | - | - | - |
| 1778050120 | 12.22° C | 100% | 1009.6 hPa | - | - | - | - |
| 1778049220 | 11.67° C | 100% | 1009.6 hPa | - | - | - | - |
| 1778048320 | 11.11° C | 100% | 1009.7 hPa | - | - | - | - |
| 1778047420 | 11.11° C | 100% | 1009.7 hPa | - | - | - | - |
| 1778046520 | 10.56° C | 100% | 1009.8 hPa | - | - | - | - |
| 1778045620 | 9.44° C | 100% | 1009.7 hPa | - | - | - | - |
* Rain since midnight (hover to see other rain measurements)
** Current wind speed in m/s (hover to see current wind gust speed)